This is the latest recevied weather packets stored in our database for station/object SV9TNF-56. If no packets are shown the sender has not sent any weather packets the latest 10 day(s).
| Time | Temp. | Humidity | Pressure | Rain* | Wind** | Luminosity | Snow |
|---|---|---|---|---|---|---|---|
| 1788400141 | 25.56° C | 59% | 1009.5 hPa | 0 mm | 17.88 m/s, 282° | - | - |
| 1788399841 | 25° C | 60% | 1009.8 hPa | 0 mm | 20.56 m/s, 0° | - | - |
| 1788399541 | 25° C | 62% | 1009.8 hPa | 0 mm | 14.31 m/s, 252° | - | - |
| 1788399241 | 25° C | 66% | 1009.8 hPa | 0 mm | 14.75 m/s, 290° | - | - |
| 1788398940 | 25° C | 67% | 1010.2 hPa | 0 mm | 12.07 m/s, 238° | - | - |
| 1788398640 | 24.44° C | 66% | 1009.8 hPa | 0 mm | 13.86 m/s, 274° | - | - |
| 1788398340 | 25° C | 69% | 1009.8 hPa | 0 mm | 16.54 m/s, 312° | - | - |
| 1788398040 | 24.44° C | 69% | 1009.8 hPa | 0 mm | 15.2 m/s, 312° | - | - |
| 1788397740 | 25° C | 69% | 1009.8 hPa | 0 mm | 13.86 m/s, 312° | - | - |
| 1788397440 | 25° C | 65% | 1009.8 hPa | 0 mm | 13.41 m/s, 317° | - | - |
| 1788397140 | 24.44° C | 65% | 1009.8 hPa | 0 mm | 13.41 m/s, 278° | - | - |
| 1788396840 | 23.89° C | 67% | 1010.2 hPa | 0 mm | 18.33 m/s, 283° | - | - |
| 1788396540 | 23.89° C | 76% | 1009.8 hPa | 0 mm | 13.41 m/s, 306° | - | - |
| 1788396240 | 23.89° C | 77% | 1009.8 hPa | 0 mm | 6.26 m/s, 270° | - | - |
| 1788395940 | 23.89° C | 74% | 1009.8 hPa | 0 mm | 12.52 m/s, 252° | - | - |
| 1788395639 | 23.89° C | 75% | 1010.2 hPa | 0 mm | 8.05 m/s, 276° | - | - |
| 1788395340 | 23.89° C | 75% | 1010.2 hPa | 0 mm | 12.52 m/s, 252° | - | - |
| 1788395039 | 23.89° C | 75% | 1010.2 hPa | 0 mm | 11.18 m/s, 290° | - | - |
| 1788394739 | 24.44° C | 75% | 1010.2 hPa | 0 mm | 12.07 m/s, 336° | - | - |
| 1788394439 | 24.44° C | 74% | 1010.2 hPa | 0 mm | 13.86 m/s, 295° | - | - |
| 1788394139 | 24.44° C | 73% | 1010.2 hPa | 0 mm | 15.2 m/s, 258° | - | - |
| 1788393839 | 23.89° C | 71% | 1010.2 hPa | 0 mm | 12.96 m/s, 275° | - | - |
| 1788393539 | 23.89° C | 72% | 1010.2 hPa | 0 mm | 16.99 m/s, 284° | - | - |
| 1788393238 | 24.44° C | 73% | 1010.2 hPa | 0 mm | 16.99 m/s, 257° | - | - |
| 1788392938 | 24.44° C | 71% | 1010.2 hPa | 0 mm | 12.07 m/s, 281° | - | - |
* Rain latest hour (hover to see other rain measurements)
** Current wind speed in m/s (hover to see current wind gust speed)